Location: Charleville
(26.4021°S, 146.2454°E)
Time: 05:26:42
(UTC+10:00)

Envisat - Visible Passes

Search period start: 10 November 2025 00:00
Search period end: 20 November 2025 00:00
Orbit: 761 x 763 km, 98.4° (Epoch: 08 November)

Date Brightness Start Highest point End Pass type
(mag) Time Alt. Az. Time Alt. Az. Time Alt. Az.
10 Nov 5.9 01:06:08 11° SE 01:06:08 11° SE 01:06:26 10° SE visible
10 Nov 4.9 02:46:16 20° SSW 02:46:16 20° SSW 02:47:49 10° SSW visible
11 Nov 4.9 02:07:59 25° S 02:07:59 25° S 02:10:09 10° S visible
12 Nov 5.5 01:29:42 18° SE 01:29:42 18° SE 01:31:31 10° SSE visible
12 Nov 5.1 03:09:49 14° SW 03:09:49 14° SW 03:10:45 10° SW visible
13 Nov 4.7 02:31:32 25° SSW 02:31:32 25° SSW 02:33:39 10° SSW visible
14 Nov 5.0 01:53:15 25° SSE 01:53:15 25° SSE 01:55:40 10° S visible
15 Nov 5.7 01:14:59 14° SE 01:14:59 14° SE 01:16:29 10° SSE visible
15 Nov 4.8 02:55:06 20° SW 02:55:06 20° SW 02:56:49 10° SSW visible
16 Nov 4.6 02:16:50 30° S 02:16:50 30° S 02:19:22 10° S visible
17 Nov 5.2 01:38:33 22° SE 01:38:33 22° SE 01:41:01 10° SSE visible
17 Nov 5.1 03:18:41 14° SW 03:18:41 14° SW 03:19:31 10° SW visible
18 Nov 5.9 01:00:17 10° ESE 01:00:17 10° ESE 01:00:31 10° SE visible
18 Nov 4.5 02:40:24 27° SSW 02:40:24 27° SSW 02:42:44 10° SSW visible
19 Nov 4.6 02:02:08 31° SSE 02:02:08 31° SSE 02:04:57 10° S visible
